Weather in Gidrotorf

Russia / Nizhny Novgorod Oblast'     56°28′20″N   43°32′23″E
temp.,
°C
wind,
m/s
gust,
m/s
humid.,
%
clouds,
%
prec.,
mm/h
press.,
hPa
HPBL,
m
7 may, fri
fri700:00+12ssw41076100 0.0 1008409
03:00+10ssw2492100 0.2 1008102
06:00+10w2494100 0.6 1008253
09:00+8nw3692100 1.9 1009480
12:00+7w3691100 4.1 1011523
15:00+11wsw4667100 6.1 10121340
18:00+12sw246140 0.1 1012194
21:00+7ne00742 0.1 101410
8 may, sat
sat800:00+5sse22820 0.0 101619
03:00+5sse338593 0.0 101640
06:00+6se2685100 0.0 1016166
09:00+12sse586274 0.0 1016699
12:00+15sse6848100 0.0 10141826
15:00+14sse6954100 0.0 10121740
18:00+13sse51062100 0.0 1010619
21:00+10sse2680100 0.5 1008188
9 may, sun
sun900:00+10se51392100 3.8 1007670
03:00+10sse51294100 5.3 1006568
06:00+10sse41097100 3.9 1006437
09:00+11sse4996100 5.3 1007513
12:00+11ssw3794100 0.5 1009463
15:00+10wsw4894100 1.9 1011515
18:00+8s2495100 2.2 1013170
21:00+8wnw3695100 2.5 1016440
10 may, mon
mon1000:00+6nw4895100 0.1 1018460
03:00+6nnw4994100 0.1 1020517
06:00+6nnw5993100 0.0 1024531
09:00+8n588774 0.0 1026537
12:00+12n466993 0.0 10271036
15:00+15n455565 0.1 10271447
18:00+13nnw37615 0.0 1028315
21:00+8ne33731 0.0 102932
11 may, tue
tue1100:00+6ne33794 0.0 103029
03:00+5ne34805 0.0 103158
06:00+7ene268314 0.0 1032161
09:00+13ene466057 0.0 1032674
12:00+17ene45455 0.0 10311082
15:00+18ene454665 0.0 10301257
18:00+17ene356268 0.0 1030194
21:00+12e3373100 0.0 103031